Regional Weather Roundup
Issued by NWS

Home | Current Version | Previous Version | Graphics & Text | Print | Product List | Glossary On
Versions: 1 2 3 4 5 6 7 8 9 10 11 12 13 14 15 16 17 18 19 20 21 22 23 24 25 26 27 28 29 30 31 32 33 34 35 36 37 38 39 40 41 42 43 44 45 46 47 48 49 50
000
ASUS43 KBIS 290302
RWRND

NORTH DAKOTA REGIONAL WEATHER ROUNDUP
NATIONAL WEATHER SERVICE BISMARCK ND
1000 PM CDT WED JUN 28 2017

NOTE: "FAIR" INDICATES FEW OR NO CLOUDS BELOW 12,000 FEET WITH NO
SIGNIFICANT WEATHER AND/OR OBSTRUCTIONS TO VISIBILITY.


NDZ001>003-009>011-017-290400-
NORTHWEST NORTH DAKOTA

CITY           SKY/WX    TMP DP  RH WIND       PRES   REMARKS
WILLISTON      MOCLDY    67  47  48 CALM      29.74R
MINOT          CLEAR     65  48  54 N5        29.73R
MINOT AFB      PTCLDY    64  52  66 NW5       29.72R
$$

NDZ018>021-031>035-040>046-290400-
SOUTHWEST NORTH DAKOTA

CITY           SKY/WX    TMP DP  RH WIND       PRES   REMARKS
BISMARCK       PTCLDY    73  50  44 NE6       29.75R
DICKINSON      CLOUDY    66  44  45 E7        29.75S
GARRISON         N/A     68  51  54 NE3       29.73S
HETTINGER ARPT CLOUDY    70  35  27 E9        29.78R
$$

NDZ004>008-012>016-024-026-027-054-290400-
NORTHEAST NORTH DAKOTA

CITY           SKY/WX    TMP DP  RH WIND       PRES   REMARKS
GRAND FORKS    CLOUDY    62  62 100 N6        29.66R
GRND FRKS AFB  CLEAR     60  60 100 N5        29.67R
DEVILS LAKE    CLEAR     65  56  72 NW9       29.71R
$$

NDZ022-023-025-028>030-036>039-047>053-290400-
SOUTHEAST NORTH DAKOTA

CITY           SKY/WX    TMP DP  RH WIND       PRES   REMARKS
FARGO          MOCLDY    65  62  90 N9        29.66R
JAMESTOWN      CLEAR     64  52  64 NW6       29.70R
$$




USA.gov is the U.S. government's official web portal to all federal, state and local government web resources and services.